Flag for Spain Weather past 2 weeks in Alicante, Spain

Now
99 °F

Passing clouds.


Feels Like: 95 °F
Forecast: 72 / 97 °F
Wind: 10 mph from Northeast

Location: Alicante / El Altet

Current Time: Jul 7, 2015 at 1:42:43 PM

Latest Report: Jul 7, 2015 at 1:00 PM


Visibility: N/A

Pressure: 30.01 "Hg

Humidity: 17%

Dew point: 46 °F

Location of AlicanteLocation

Historic Weather in Alicante — Graph

°F

Alicante temperature yesterday

Maximum temperature yesterday: 91 °F (at 2:00 PM)
Minimum temperature yesterday: 75 °F (at 4:30 AM)
Average temperature yesterday: 84 °F

Past Weeks' High & Low Weather Summary

 TemperatureHumidityPressure
High99 °F (Jun 28, 1:00 PM)89% (Jul 3, 3:00 AM)30.21 "Hg (Jul 3, 3:00 AM)
Low66 °F (Jun 23, 6:30 AM)10% (Jun 28, 2:00 PM)29.80 "Hg (Jun 23, 7:30 PM)
Average81 °F50%30.05 "Hg
* Reported Jun 22 12:00 Noon — Jul 7 12:30 PM, Alicante, Weather by CustomWeather, © 2015

Note: Actual official high and low records may vary slightly from our data, if they occured in-between our weather recording intervals... More about our weather records

Advertising

Alicante weather history for previous 24 hours

 ConditionsComfort  
Time TempWeatherWind HumidityBarometerVisibility
12:30 PM
Tue, Jul 7
99 °FSunny.9 mph17%30.01 "Hg10 mi
12:00 PM99 °FPassing clouds.6 mph19%30.01 "HgN/A
11:30 AM99 °FSunny.1 mph14%30.01 "Hg10 mi
11:00 AM95 °FSunny.No wind16%30.01 "Hg10 mi
10:30 AM93 °FSunny.1 mph19%30.01 "Hg10 mi
10:00 AM93 °FSunny.No wind19%30.01 "Hg10 mi
9:30 AM86 °FSunny.No wind25%30.01 "Hg10 mi
9:00 AM82 °FSunny.1 mph26%30.01 "Hg10 mi
8:30 AM81 °FSunny.1 mph32%30.01 "Hg10 mi
8:00 AM77 °FSunny.1 mph32%30.01 "Hg10 mi
7:30 AM73 °FClear.No wind36%30.01 "Hg10 mi
7:00 AM72 °FClear.2 mph44%30.01 "Hg10 mi
6:30 AM72 °FClear.2 mph44%30.01 "Hg10 mi
6:00 AM75 °FClear.No wind39%30.01 "Hg10 mi
5:30 AM77 °FClear.1 mph34%30.01 "Hg10 mi
5:00 AM79 °FPassing clouds.3 mph30%30.01 "HgN/A
4:30 AM75 °FClear.3 mph36%30.01 "Hg10 mi
4:00 AM75 °FClear.3 mph36%30.01 "Hg10 mi
3:30 AM75 °FClear.2 mph36%30.01 "Hg10 mi
3:00 AM75 °FClear.3 mph39%30.04 "Hg10 mi
2:30 AM75 °FClear.1 mph41%30.04 "Hg10 mi
2:00 AM77 °FClear.No wind36%30.04 "Hg10 mi
1:30 AM81 °FClear.3 mph30%30.04 "Hg10 mi
1:00 AM82 °FPassing clouds.3 mph30%30.07 "HgN/A
12:30 AM82 °FPassing clouds.5 mph32%30.07 "HgN/A
12:00 AM81 °FClear.2 mph42%30.07 "Hg10 mi
11:00 PM
Mon, Jul 6
82 °FClear.2 mph51%30.07 "Hg10 mi
10:30 PM82 °FPassing clouds.3 mph55%30.04 "HgN/A
10:00 PM82 °FSunny.5 mph58%30.04 "Hg10 mi
9:30 PM82 °FSunny.7 mph55%30.04 "Hg10 mi
9:00 PM84 °FSunny.9 mph55%30.04 "Hg10 mi
8:30 PM84 °FSunny.8 mph48%30.04 "Hg10 mi
8:00 PM84 °FSunny.12 mph51%30.04 "Hg10 mi
7:30 PM86 °FSunny.12 mph46%30.04 "Hg10 mi
7:00 PM88 °FSunny.10 mph38%30.04 "Hg10 mi
6:30 PM88 °FSunny.12 mph33%30.04 "Hg10 mi
6:00 PM90 °FSunny.13 mph36%30.07 "Hg10 mi
5:30 PM88 °FPassing clouds.13 mph46%30.07 "HgN/A
5:00 PM88 °FSunny.13 mph49%30.07 "Hg10 mi
4:30 PM90 °FSunny.14 mph41%30.07 "Hg10 mi
4:00 PM90 °FSunny.14 mph41%30.07 "Hg10 mi
3:30 PM91 °FPassing clouds.13 mph34%30.07 "HgN/A
3:00 PM90 °FPassing clouds.14 mph36%30.07 "HgN/A
2:30 PM91 °FSunny.13 mph32%30.09 "Hg10 mi
2:00 PM91 °FSunny.13 mph36%30.07 "Hg10 mi
1:30 PM90 °FPassing clouds.12 mph43%30.09 "HgN/A
1:00 PM88 °FPassing clouds.9 mph46%30.09 "HgN/A
Weather by CustomWeather, © 2015

See weather overviewHow to use our weather pages